Home   Weather   Ahrensburg   Past weeks

Flag for Germany Past Weather in Ahrensburg, Schleswig-Holstein, Germany — Yesterday and Last 2 Weeks

Now
45 °F

Clear.


Feels Like: 38 °F
Forecast: 40 / 43 °F
Wind: 13 mph from Southwest

Location: Hamburg-Fuhlsbuettel

Current Time: Dec 7, 2016 at 5:41:11 pm

Latest Report: Dec 7, 2016 at 5:20 pm


Visibility: 10 mi

Pressure: 30.27 "Hg

Humidity: 81%

Dew Point: 39 °F

Location of AhrensburgLocation

Past Weather in Ahrensburg — Graph

°F

Ahrensburg Temperature Yesterday

Maximum temperature yesterday: 39 °F (at 1:20 pm)
Minimum temperature yesterday: 34 °F (at 12:20 am)
Average temperature yesterday: 37 °F

High & Low Weather Summary for the Past Weeks

 TemperatureHumidityPressure
High54 °F (Nov 23, 1:20 pm)100% (Nov 23, 6:50 pm)30.54 "Hg (Nov 23, 6:50 pm)
Low19 °F (Nov 29, 2:20 am)53% (Dec 2, 12:20 pm)29.89 "Hg (Nov 22, 4:20 pm)
Average36 °F88%30.25 "Hg
* Reported Nov 22 4:20 pm — Dec 7 4:20 pm, Ahrensburg, Weather by CustomWeather, © 2016

Note: Actual official high and low records may vary slightly from our data, if they occured in-between our weather recording intervals... More about our weather records

Advertising

Ahrensburg Weather History for the Previous 24 Hours

Scroll right to see more
 ConditionsComfort  
Time TempWeatherWind HumidityBarometerVisibility
4:20 pm
Wed, Dec 7
43 °FClear.9 mph81%30.27 "Hg10 mi
3:50 pm43 °FSunny.9 mph81%30.30 "Hg10 mi
3:20 pm43 °FSunny.12 mph81%30.30 "Hg10 mi
2:50 pm41 °FLight rain. Broken clouds.12 mph81%30.30 "HgN/A
2:20 pm41 °FSunny.13 mph81%30.30 "Hg10 mi
1:50 pm41 °FLight rain. Clear.12 mph81%30.30 "HgN/A
1:20 pm41 °FBroken clouds.14 mph81%30.30 "HgN/A
12:50 pm43 °FBroken clouds.10 mph76%30.33 "HgN/A
12:20 pm39 °FBroken clouds.7 mph81%30.33 "HgN/A
11:50 am37 °FBroken clouds.8 mph87%30.36 "HgN/A
11:20 am37 °FLight rain. Partly sunny.9 mph81%30.36 "HgN/A
10:50 am36 °FLight rain. Partly sunny.9 mph87%30.39 "HgN/A
10:20 am36 °FLight rain. Broken clouds.9 mph81%30.39 "HgN/A
9:50 am34 °FBroken clouds.10 mph87%30.39 "HgN/A
9:20 am34 °FPartly sunny.9 mph81%30.39 "HgN/A
8:50 am34 °FSunny.10 mph81%30.39 "Hg10 mi
8:20 am34 °FClear.12 mph81%30.39 "Hg10 mi
7:50 am34 °FClear.10 mph81%30.39 "Hg10 mi
7:20 am34 °FClear.10 mph81%30.42 "Hg10 mi
6:50 am34 °FClear.9 mph81%30.42 "Hg10 mi
6:20 am34 °FClear.9 mph87%30.42 "Hg10 mi
5:50 am34 °FClear.8 mph87%30.42 "Hg10 mi
5:20 am34 °FClear.8 mph87%30.42 "Hg10 mi
4:50 am34 °FClear.9 mph87%30.45 "Hg10 mi
4:20 am34 °FClear.9 mph87%30.45 "Hg10 mi
3:50 am34 °FClear.10 mph87%30.45 "Hg10 mi
3:20 am36 °FClear.8 mph81%30.48 "Hg10 mi
2:50 am34 °FClear.7 mph87%30.48 "Hg10 mi
2:20 am34 °FClear.7 mph87%30.48 "Hg10 mi
1:50 am36 °FClear.6 mph81%30.48 "Hg10 mi
1:20 am34 °FClear.6 mph87%30.48 "Hg10 mi
12:50 am34 °FPassing clouds.7 mph87%30.48 "HgN/A
12:20 am36 °FPassing clouds.5 mph81%30.51 "HgN/A
11:50 pm
Tue, Dec 6
37 °FPassing clouds.6 mph81%30.51 "HgN/A
11:20 pm37 °FPassing clouds.6 mph81%30.48 "HgN/A
10:50 pm37 °FPassing clouds.3 mph81%30.48 "HgN/A
10:20 pm37 °FPassing clouds.1 mph75%30.51 "HgN/A
9:50 pm37 °FPassing clouds.No wind75%30.51 "HgN/A
9:20 pm37 °FPassing clouds.No wind75%30.51 "HgN/A
8:50 pm36 °FPassing clouds.1 mph81%30.51 "HgN/A
8:20 pm37 °FPassing clouds.3 mph75%30.51 "HgN/A
7:50 pm37 °FPassing clouds.3 mph75%30.51 "HgN/A
6:50 pm36 °FPassing clouds.5 mph87%30.51 "HgN/A
6:20 pm37 °FPassing clouds.3 mph81%30.48 "HgN/A
5:50 pm36 °FPassing clouds.5 mph87%30.48 "HgN/A
5:20 pm37 °FPassing clouds.6 mph81%30.48 "HgN/A
Weather by CustomWeather, © 2016

See weather overviewHow to use our weather pages